Voltar ao catálogo

SL-8 DEB

AtivoLEO
NORAD 60605·DEBRIS·🇷🇺 Russia

Lançado Feb 12, 1991 de Plesetsk Cosmodrome

Loading…

Próximas Passagens (próximas 24 horas)

TLE

AtualizadoSource: Space-Track

Época: Sep 14, 2026, 00:40 UTC

1 60605U 91009EA  26257.02815986  .00000036  00000-0  46445-3 0  9992
2 60605  74.0516 124.4425 0173071 177.4155 182.7814 12.19948118570189

Acompanhe SL-8 DEB em tempo real com AllMySat

Download on the App Store